Weather History for KMRN - January, 2014

Change the Weather History Date:

Saturday, January 18, 2014

  Actual Average (KHKY) Record (KHKY)
Temperature  
Mean Temperature 30 °F -  
Max Temperature 38 °F 48 °F 67 °F (1990)
Min Temperature 22 °F 29 °F 8 °F (1977)
Degree Days  
Heating Degree Days 35    
Moisture  
Dew Point 11 °F    
Average Humidity 48    
Maximum Humidity 84    
Minimum Humidity 31    
Precipitation  
Precipitation 0.00 in - - ()
Sea Level Pressure  
Sea Level Pressure 30.01 in    
Wind  
Wind Speed 7 mph (West)    
Max Wind Speed 13 mph    
Max Gust Speed 23 mph    
Visibility 10 miles    
Events      
Averages and records for this station are not official NWS values.
T = Trace of Precipitation, MM = Missing Value Source: NWS Daily Summary

Daily Weather History Graph

Daily Weather History Graph

Search for Another Location

Airport or City:

Trip Planner

Search our weather history database for the weather conditions in past years. The results will help you decide how hot, cold, wet, or windy it might be!

Date:

Astronomy

Jan. 18, 2014 Rise Set
Actual Time 7:34 AM EST 5:39 PM EST
Civil Twilight 7:07 AM EST 6:06 PM EST
Nautical Twilight 6:35 AM EST 6:38 PM EST
Astronomical Twilight 6:05 AM EST 7:08 PM EST
Moon 8:13 PM EST (1/18) 8:39 AM EST (1/18)
Length of Visible Light 10h 59m
Length of Day
10h 04m
Waning Gibbous, 94% of the Moon is Illuminated
Jan 18
Waning Gibbous
Jan 24
Last Quarter
Jan 30
New
Feb 6
First Quarter
Feb 14
Full

Hourly Weather History & Observations

Time (EST) Temp. Windchill Dew Point Humidity Pressure Visibility Wind Dir Wind Speed Gust Speed Precip Events Conditions
12:15 AM 32.2 °F 25.8 °F 15.3 °F 50% 29.94 in 10.0 mi West 6.9 mph - N/A   Clear
12:35 AM 32.0 °F 24.8 °F 14.7 °F 49% 29.94 in 10.0 mi WNW 8.1 mph - N/A   Clear
12:55 AM 31.6 °F 23.1 °F 13.8 °F 48% 29.94 in 10.0 mi WNW 10.4 mph - N/A   Clear
1:15 AM 31.6 °F 23.7 °F 13.1 °F 46% 29.94 in 10.0 mi West 9.2 mph - N/A   Clear
1:35 AM 30.7 °F 22.6 °F 12.0 °F 46% 29.93 in 10.0 mi WNW 9.2 mph 17.3 mph N/A   Clear
1:55 AM 30.4 °F 22.2 °F 10.0 °F 43% 29.94 in 10.0 mi WNW 9.2 mph 19.6 mph N/A   Scattered Clouds
2:15 AM 30.0 °F 21.1 °F 8.6 °F 41% 29.95 in 10.0 mi West 10.4 mph - N/A   Scattered Clouds
2:35 AM 29.7 °F 20.7 °F 9.5 °F 43% 29.95 in 10.0 mi West 10.4 mph 16.1 mph N/A   Scattered Clouds
2:55 AM 29.3 °F 20.8 °F 10.2 °F 45% 29.95 in 10.0 mi WNW 9.2 mph - N/A   Mostly Cloudy
3:15 AM 29.3 °F 22.3 °F 9.3 °F 43% 29.96 in 10.0 mi NW 6.9 mph - N/A   Mostly Cloudy
3:35 AM 28.0 °F 19.3 °F 10.4 °F 48% 29.96 in 10.0 mi NW 9.2 mph - N/A   Scattered Clouds
3:55 AM 27.5 °F 17.4 °F 5.5 °F 39% 29.97 in 10.0 mi WNW 11.5 mph 23.0 mph N/A   Clear
4:15 AM 27.0 °F 16.7 °F 5.0 °F 39% 29.98 in 10.0 mi WNW 11.5 mph 18.4 mph N/A   Clear
4:35 AM 25.5 °F 18.7 °F 7.7 °F 47% 29.99 in 10.0 mi NW 5.8 mph - N/A   Clear
4:55 AM 25.3 °F 15.3 °F 8.2 °F 48% 29.99 in 10.0 mi NW 10.4 mph - N/A   Clear
5:15 AM 24.8 °F 15.3 °F 9.5 °F 52% 29.99 in 10.0 mi NW 9.2 mph - N/A   Scattered Clouds
5:35 AM 24.4 °F 16.5 °F 10.4 °F 55% 30.00 in 10.0 mi NW 6.9 mph - N/A   Scattered Clouds
5:55 AM 23.9 °F 16.8 °F 10.4 °F 56% 30.01 in 10.0 mi WNW 5.8 mph - N/A   Scattered Clouds
6:15 AM 23.5 °F 17.6 °F 10.6 °F 58% 30.01 in 10.0 mi NW 4.6 mph - N/A   Clear
6:35 AM 24.8 °F 13.4 °F 5.5 °F 44% 30.02 in 10.0 mi WNW 12.7 mph 18.4 mph N/A   Scattered Clouds
6:55 AM 24.4 °F 14.9 °F 5.2 °F 44% 30.01 in 10.0 mi West 9.2 mph - N/A   Scattered Clouds
7:15 AM 24.3 °F 15.4 °F 4.8 °F 43% 30.01 in 10.0 mi WNW 8.1 mph 18.4 mph N/A   Scattered Clouds
7:35 AM 23.0 °F 17.0 °F 7.2 °F 51% 30.02 in 10.0 mi NW 4.6 mph - N/A   Scattered Clouds
7:55 AM 22.8 °F - 5.9 °F 48% 30.03 in 10.0 mi Calm Calm - N/A   Scattered Clouds
8:15 AM 24.1 °F 19.7 °F 5.7 °F 46% 30.03 in 10.0 mi NW 3.5 mph - N/A   Clear
8:35 AM 25.2 °F - 5.2 °F 43% 30.05 in 10.0 mi Calm Calm - N/A   Clear
8:55 AM 25.7 °F 21.5 °F 5.4 °F 42% 30.06 in 10.0 mi South 3.5 mph - N/A   Clear
9:15 AM 26.8 °F 20.2 °F 7.3 °F 44% 30.07 in 10.0 mi SW 5.8 mph - N/A   Clear
9:35 AM 27.5 °F 20.2 °F 8.2 °F 44% 30.08 in 10.0 mi SW 6.9 mph - N/A   Clear
9:55 AM 28.6 °F 21.5 °F 8.6 °F 43% 30.09 in 10.0 mi SW 6.9 mph - N/A   Clear
10:15 AM 28.8 °F 19.5 °F 9.0 °F 43% 30.10 in 10.0 mi WSW 10.4 mph 17.3 mph N/A   Clear
10:35 AM 29.7 °F 22.0 °F 9.5 °F 43% 30.09 in 10.0 mi SW 8.1 mph - N/A   Clear
10:55 AM 30.4 °F 24.5 °F 9.9 °F 42% 30.10 in 10.0 mi WSW 5.8 mph - N/A   Clear
11:15 AM 31.1 °F 22.4 °F 10.0 °F 41% 30.10 in 10.0 mi WSW 10.4 mph - N/A   Clear
11:35 AM 31.3 °F 23.3 °F 9.1 °F 40% 30.09 in 10.0 mi SW 9.2 mph - N/A   Clear
11:55 AM 32.0 °F 24.2 °F 10.9 °F 42% 30.08 in 10.0 mi West 9.2 mph - N/A   Clear
12:15 PM 32.5 °F 25.5 °F 11.1 °F 41% 30.07 in 10.0 mi SW 8.1 mph - N/A   Clear
12:35 PM 33.4 °F 26.6 °F 11.3 °F 40% 30.06 in 10.0 mi WSW 8.1 mph 17.3 mph N/A   Clear
12:55 PM 34.7 °F 28.1 °F 11.5 °F 38% 30.05 in 10.0 mi West 8.1 mph 18.4 mph N/A   Clear
1:15 PM 34.7 °F 28.8 °F 11.5 °F 38% 30.04 in 10.0 mi WSW 6.9 mph 19.6 mph N/A   Clear
1:35 PM 34.9 °F 28.3 °F 12.2 °F 39% 30.04 in 10.0 mi West 8.1 mph 18.4 mph N/A   Clear
1:55 PM 35.8 °F 29.4 °F 12.2 °F 38% 30.05 in 10.0 mi WSW 8.1 mph 19.6 mph N/A   Clear
2:15 PM 36.0 °F 28.0 °F 10.2 °F 34% 30.03 in 10.0 mi SSW 11.5 mph 16.1 mph N/A   Clear
2:35 PM 36.3 °F 29.5 °F 10.6 °F 35% 30.02 in 10.0 mi WSW 9.2 mph - N/A   Clear
2:55 PM 36.5 °F 31.0 °F 10.4 °F 34% 30.01 in 10.0 mi West 6.9 mph - N/A   Clear
3:15 PM 37.2 °F 31.9 °F 9.7 °F 32% 30.00 in 10.0 mi South 6.9 mph - N/A   Clear
3:35 PM 37.8 °F 32.5 °F 9.3 °F 31% 30.00 in 10.0 mi SW 6.9 mph - N/A   Clear
3:55 PM 38.1 °F 32.9 °F 9.9 °F 31% 30.00 in 10.0 mi SSW 6.9 mph - N/A   Clear
4:15 PM 38.3 °F 33.2 °F 9.7 °F 31% 30.02 in 10.0 mi SSW 6.9 mph - N/A   Clear
4:35 PM 38.5 °F 36.1 °F 10.0 °F 31% 30.02 in 10.0 mi South 3.5 mph - N/A   Clear
4:55 PM 38.3 °F 35.9 °F 10.2 °F 31% 30.01 in 10.0 mi South 3.5 mph - N/A   Clear
5:15 PM 37.6 °F - 10.4 °F 33% 30.00 in 10.0 mi Calm Calm - N/A   Clear
5:35 PM 36.0 °F - 10.9 °F 36% 30.00 in 10.0 mi Calm Calm - N/A   Clear
5:55 PM 34.0 °F 29.8 °F 11.5 °F 39% 30.01 in 10.0 mi South 4.6 mph - N/A   Clear
6:15 PM 33.8 °F 30.8 °F 11.8 °F 40% 30.01 in 10.0 mi South 3.5 mph - N/A   Clear
6:35 PM 31.3 °F - 12.7 °F 46% 30.02 in 10.0 mi Calm Calm - N/A   Clear
6:55 PM 27.7 °F - 18.1 °F 67% 30.01 in 10.0 mi Calm Calm - N/A   Clear
7:15 PM 27.1 °F - 17.2 °F 66% 30.02 in 10.0 mi Calm Calm - N/A   Clear
7:35 PM 26.4 °F - 17.1 °F 68% 30.00 in 10.0 mi Calm Calm - N/A   Clear
7:55 PM 26.6 °F - 17.8 °F 69% 30.00 in 10.0 mi Calm Calm - N/A   Clear
8:15 PM 27.3 °F - 19.9 °F 74% 29.99 in 10.0 mi Calm Calm - N/A   Clear
8:35 PM 26.1 °F - 15.8 °F 65% 29.98 in 10.0 mi Calm Calm - N/A   Clear
8:55 PM 24.8 °F - 17.1 °F 72% 29.97 in 10.0 mi Calm Calm - N/A   Clear
9:15 PM 25.5 °F - 17.8 °F 72% 29.99 in 10.0 mi Calm Calm - N/A   Clear
9:35 PM 27.9 °F 21.5 °F 17.6 °F 65% 30.01 in 10.0 mi NW 5.8 mph - N/A   Scattered Clouds
9:55 PM 28.4 °F - 16.5 °F 61% 30.00 in 10.0 mi Calm Calm - N/A   Scattered Clouds
10:15 PM 25.2 °F - 17.4 °F 72% 30.00 in 10.0 mi Calm Calm - N/A   Clear
10:35 PM 24.6 °F - 18.1 °F 76% 30.00 in 10.0 mi Calm Calm - N/A   Clear
10:55 PM 23.9 °F - 18.1 °F 79% 29.99 in 10.0 mi Calm Calm - N/A   Clear
11:15 PM 25.7 °F - 21.4 °F 84% 29.99 in 10.0 mi Calm Calm - N/A   Clear
11:35 PM 25.3 °F - 20.1 °F 81% 29.98 in 10.0 mi Calm Calm - N/A   Clear
11:55 PM 29.8 °F 24.9 °F 17.1 °F 59% 29.97 in 10.0 mi WSW 4.6 mph - N/A   Clear